Home   Weather   The Valley   Past weeks

Flag for Anguilla Past Weather in The Valley, Anguilla — Yesterday and Last 2 Weeks

Now
81 °F

Passing clouds.


Feels Like: 85 °F
Forecast: 80 / 85 °F
Wind: 9 mph from East

Location: Juliana Airport - Saint Maarten

Current Time: Dec 9, 2016 at 5:54:11 am

Latest Report: Dec 9, 2016 at 5:00 am


Visibility: N/A

Pressure: 29.98 "Hg

Humidity: 79%

Dew Point: 73 °F

Location of The ValleyLocation

Past Weather in The Valley — Graph

°F

The Valley Temperature Yesterday

Maximum temperature yesterday: 86 °F (at 2:00 pm)
Minimum temperature yesterday: 79 °F (at 2:00 am)
Average temperature yesterday: 82 °F

High & Low Weather Summary for the Past Weeks

 TemperatureHumidityPressure
High86 °F (Nov 24, 12:00 pm)100% (Nov 28, 11:00 am)30.07 "Hg (Nov 28, 11:00 am)
Low72 °F (Nov 28, 1:00 pm)62% (Nov 25, 11:00 am)29.71 "Hg (Nov 28, 5:00 pm)
Average81 °F80%29.94 "Hg
* Reported Nov 24 4:00 am — Dec 9 4:00 am, The Valley, Weather by CustomWeather, © 2016

Note: Actual official high and low records may vary slightly from our data, if they occured in-between our weather recording intervals... More about our weather records

Advertising

The Valley Weather History for the Previous 24 Hours

Scroll right to see more
 ConditionsComfort  
Time TempWeatherWind HumidityBarometerVisibility
4:00 am
Fri, Dec 9
81 °FPassing clouds.10 mph79%29.98 "HgN/A
3:00 am81 °FPassing clouds.12 mph79%29.98 "HgN/A
2:00 am81 °FPassing clouds.14 mph84%29.98 "HgN/A
1:00 am81 °FPassing clouds.14 mph84%30.01 "HgN/A
12:00 am81 °FPassing clouds.12 mph84%30.01 "HgN/A
11:00 pm
Thu, Dec 8
81 °FPassing clouds.14 mph84%30.01 "HgN/A
9:00 pm81 °FSprinkles. Passing clouds.14 mph84%30.04 "Hg6 mi
7:00 pm81 °FPassing clouds.12 mph79%30.01 "HgN/A
6:00 pm82 °FPassing clouds.12 mph74%29.98 "HgN/A
5:00 pm82 °FScattered clouds.12 mph79%29.98 "HgN/A
4:00 pm84 °FScattered clouds.14 mph70%29.98 "HgN/A
3:00 pm84 °FPassing clouds.13 mph66%29.98 "HgN/A
2:00 pm86 °FScattered clouds.12 mph62%29.98 "HgN/A
1:00 pm84 °FPartly sunny.13 mph66%30.01 "HgN/A
12:00 pm84 °FScattered clouds.14 mph70%30.01 "HgN/A
11:00 am84 °FPassing clouds.15 mph66%30.04 "HgN/A
10:00 am84 °FPassing clouds.15 mph66%30.04 "HgN/A
9:00 am82 °FPassing clouds.13 mph70%30.04 "HgN/A
8:00 am81 °FPassing clouds.13 mph74%30.04 "HgN/A
7:00 am79 °FPassing clouds.9 mph79%30.01 "HgN/A
6:00 am79 °FPassing clouds.10 mph79%30.01 "HgN/A
5:00 am79 °FPassing clouds.13 mph79%29.98 "HgN/A
Weather by CustomWeather, © 2016

See weather overviewHow to use our weather pages